This is the latest recevied weather packets stored in our database for station/object HP1PCR-13. If no packets are shown the sender has not sent any weather packets the latest 10 day(s).
| Time | Temp. | Humidity | Pressure | Rain* | Wind** | Luminosity | Snow |
|---|---|---|---|---|---|---|---|
| 1777531430 | 31.67° C | 41% | 1000.6 hPa | - | - | - | - |
| 1777530826 | 31.67° C | 41% | 1000.8 hPa | - | - | - | - |
| 1777530222 | 31.67° C | 41% | 1000.9 hPa | - | - | - | - |
| 1777529618 | 31.67° C | 40% | 1000.9 hPa | - | - | - | - |
| 1777529014 | 31.67° C | 40% | 1001 hPa | - | - | - | - |
| 1777528410 | 31.67° C | 40% | 1001.2 hPa | - | - | - | - |
| 1777527806 | 31.11° C | 39% | 1001.5 hPa | - | - | - | - |
| 1777527202 | 31.11° C | 39% | 1001.7 hPa | - | - | - | - |
| 1777526598 | 31.11° C | 39% | 1001.8 hPa | - | - | - | - |
| 1777525993 | 31.11° C | 38% | 1001.9 hPa | - | - | - | - |
| 1777524785 | 30.56° C | 36% | 1002 hPa | - | - | - | - |
| 1777524181 | 30° C | 34% | 1002.2 hPa | - | - | - | - |
| 1777523578 | 30° C | 33% | 1002.2 hPa | - | - | - | - |
| 1777522974 | 30° C | 33% | 1002.2 hPa | - | - | - | - |
| 1777522369 | 30.56° C | 32% | 1002.2 hPa | - | - | - | - |
| 1777521765 | 30.56° C | 33% | 1002.1 hPa | - | - | - | - |
| 1777521161 | 30° C | 31% | 1002.1 hPa | - | - | - | - |
| 1777520556 | 30.56° C | 30% | 1002.1 hPa | - | - | - | - |
| 1777519952 | 30.56° C | 32% | 1002.3 hPa | - | - | - | - |
| 1777519348 | 30.56° C | 35% | 1002.3 hPa | - | - | - | - |
| 1777518744 | 30.56° C | 32% | 1002.4 hPa | - | - | - | - |
| 1777518140 | 30.56° C | 34% | 1002.3 hPa | - | - | - | - |
| 1777517535 | 30.56° C | 32% | 1002.1 hPa | - | - | - | - |
| 1777516931 | 30.56° C | 32% | 1001.9 hPa | - | - | - | - |
| 1777516327 | 30.56° C | 31% | 1001.8 hPa | - | - | - | - |
* Rain since midnight (hover to see other rain measurements)
** Current wind speed in m/s (hover to see current wind gust speed)